Location: Newark
(39.5667°N, 8.9833°E)
Time: 16:14:58
(UTC+00:00)

Courier 1B - All Passes

Search period start: 14 October 2019 00:00
Search period end: 24 October 2019 00:00
Orbit: 962 x 1209 km, 28.3° (Epoch: 14 October)

Date Brightness Start Highest point End Pass type
(mag) Time Alt. Az. Time Alt. Az. Time Alt. Az.
14 Oct - 00:11:56 10° WSW 00:17:04 22° SSW 00:21:59 10° SSE night (unlit)
14 Oct - 17:40:01 10° S 17:43:21 13° SSE 17:46:39 10° SE visible
14 Oct - 19:30:28 10° SW 19:36:39 27° SSE 19:42:36 10° ESE visible
14 Oct - 21:23:36 10° WSW 21:30:08 34° S 21:36:20 10° ESE visible
14 Oct - 23:17:46 10° WSW 23:23:30 26° SSW 23:28:57 10° SE night (unlit)
15 Oct - 01:14:35 10° SW 01:16:30 11° SSW 01:18:23 10° SSW night (unlit)
15 Oct - 18:37:04 10° SSW 18:42:57 24° SSE 18:48:41 10° ESE visible
15 Oct - 20:29:46 10° WSW 20:36:26 34° S 20:42:47 10° ESE visible
15 Oct - 22:23:42 10° WSW 22:29:54 29° SSW 22:35:45 10° SE night (unlit)
16 Oct - 00:19:10 10° WSW 00:23:00 15° SSW 00:26:44 10° S night (unlit)
16 Oct - 17:43:51 10° SSW 17:49:16 20° SSE 17:54:33 10° ESE visible
16 Oct - 19:36:01 10° SW 19:42:42 33° S 19:49:06 10° ESE visible
16 Oct - 21:29:42 10° WSW 21:36:14 32° S 21:42:25 10° SE visible
16 Oct - 23:24:33 10° WSW 23:29:29 20° SSW 23:34:13 10° SSE night (unlit)
17 Oct - 16:50:59 10° SSW 16:55:35 17° SSE 17:00:09 10° ESE daylight
17 Oct - 18:42:23 10° SW 18:48:58 30° SSE 18:55:21 10° ESE visible
17 Oct - 20:35:46 10° WSW 20:42:31 34° S 20:48:57 10° ESE visible
17 Oct - 22:30:13 10° WSW 22:35:54 24° SSW 22:41:20 10° SSE night (unlit)
18 Oct - 15:58:45 10° S 16:01:56 13° SSE 16:05:07 10° SE daylight
18 Oct - 17:48:52 10° SW 17:55:13 27° SSE 18:01:27 10° ESE visible
18 Oct - 19:41:54 10° WSW 19:48:47 35° S 19:55:24 10° ESE visible
18 Oct - 21:36:03 10° WSW 21:42:16 28° SSW 21:48:13 10° SE visible
18 Oct - 23:32:15 10° SW 23:35:22 13° SSW 23:38:25 10° S night (unlit)
19 Oct - 16:55:32 10° SSW 17:01:30 24° SSE 17:07:24 10° ESE visible
19 Oct - 18:48:06 10° WSW 18:55:01 35° S 19:01:43 10° ESE visible
19 Oct - 20:41:59 10° WSW 20:48:35 32° S 20:54:55 10° SE visible
19 Oct - 22:37:13 10° WSW 22:41:49 17° SSW 22:46:16 10° SSE night (unlit)
20 Oct - 16:02:28 10° SSW 16:07:48 20° SSE 16:13:08 10° ESE daylight
20 Oct - 17:54:25 10° SW 18:01:14 33° S 18:07:57 10° ESE visible
20 Oct - 19:48:00 10° WSW 19:54:51 34° S 20:01:27 10° SE visible
20 Oct - 21:42:42 10° WSW 21:48:14 22° SSW 21:53:33 10° SSE visible
21 Oct - 15:09:47 10° S 15:14:08 16° SSE 15:18:30 10° ESE daylight
21 Oct - 17:00:51 10° SW 17:07:28 30° SSE 17:14:03 10° ESE visible
21 Oct - 18:54:05 10° WSW 19:01:05 36° S 19:07:53 10° ESE visible
21 Oct - 20:48:25 10° WSW 20:54:35 26° SSW 21:00:31 10° SE visible
21 Oct - 22:45:56 10° SW 22:47:40 11° SSW 22:49:23 10° SSW night (unlit)
22 Oct - 14:17:56 10° S 14:20:30 12° SSE 14:23:05 10° SE daylight
22 Oct - 16:07:27 10° SW 16:13:43 27° SSE 16:20:01 10° ESE daylight
22 Oct - 18:00:17 10° WSW 18:07:17 36° S 18:14:11 10° ESE visible
22 Oct - 19:54:18 10° WSW 20:00:52 30° SSW 20:07:15 10° SE visible
22 Oct - 21:50:04 10° WSW 21:54:06 15° SSW 21:58:03 10° S night (unlit)
23 Oct - 15:14:16 10° SSW 15:20:00 23° SSE 15:25:50 10° ESE daylight
23 Oct - 17:06:35 10° SW 17:13:29 35° S 17:20:24 10° ESE visible
23 Oct - 19:00:18 10° WSW 19:07:08 33° S 19:13:49 10° SE visible
23 Oct - 20:55:18 10° WSW 21:00:30 19° SSW 21:05:33 10° SSE visible
